EW8618 Weather Reports


Display with metric or nautical units.
time (UTC)temp
F
wind
direction
speed
MPH
gust
MPH
rain 1hr
in
rain 24hr
in
rain mn
in
humidity
%
barometer
mb
20260505184519 56 122 0.0 0.0 0.00 0.00 0.00 81 1012.0
20260505183016 55 122 0.0 0.0 0.00 0.00 0.00 81 1012.0
20260505181515 55 119 0.0 0.0 0.00 0.00 0.00 80 1012.0
20260505180012 55 127 0.0 0.0 0.00 0.00 0.00 79 1012.0
20260505174511 55 83 0.0 0.0 0.00 0.00 0.00 77 1011.8
20260505173009 55 54 0.0 0.0 0.00 0.00 0.00 78 1011.6
20260505171509 55 54 0.0 0.0 0.00 0.00 0.00 79 1011.5
20260505170015 54 219 0.0 0.0 0.00 0.00 0.00 78 1011.4
20260505163009 54 346 0.0 0.0 0.00 0.00 0.00 79 1011.2
20260505161502 53 261 0.0 0.0 0.00 0.00 0.00 81 1011.2
20260505153054 51 248 0.0 0.0 0.00 0.00 0.00 85 1011.1
20260505151549 51 248 0.0 0.0 0.00 0.00 0.00 86 1011.1
20260505124532 49 300 0.0 0.0 0.00 0.00 0.00 90 1010.5
20260505123031 49 300 0.0 0.0 0.00 0.00 0.00 90 1010.6
20260505121536 49 300 0.0 0.0 0.00 0.00 0.00 90 1010.6
20260505120055 49 300 0.0 0.0 0.00 0.00 0.00 90 1010.6
20260505114529 49 300 0.0 0.0 0.00 0.00 0.00 89 1010.7
20260505113029 49 300 0.0 0.0 0.00 0.00 0.00 89 1010.7
20260505111528 49 300 0.0 0.0 0.00 0.00 0.00 89 1010.7
20260505101525 50 300 0.0 0.0 0.00 0.00 0.00 89 1010.6
20260505100025 50 300 0.0 0.0 0.00 0.00 0.00 89 1010.8
20260505094522 50 300 0.0 0.0 0.00 0.00 0.00 88 1010.7
20260505093022 50 300 0.0 0.0 0.00 0.00 0.00 87 1010.8
20260505091527 50 300 0.0 0.0 0.00 0.00 0.00 87 1010.7
20260505090036 50 300 0.0 0.0 0.00 0.00 0.00 87 1011.1
20260505084519 50 300 0.0 0.0 0.00 0.00 0.00 86 1011.1
20260505083017 50 300 0.0 0.0 0.00 0.00 0.00 87 1011.4
20260505081517 50 300 0.0 0.0 0.00 0.00 0.00 86 1011.3
20260505080016 50 300 0.0 0.0 0.00 0.00 0.00 86 1011.6
20260505074515 50 300 0.0 0.0 0.00 0.00 0.00 86 1011.5
20260505073027 50 300 0.0 0.0 0.00 0.00 0.00 86 1011.4
20260505071517 50 300 0.0 0.0 0.00 0.00 0.00 85 1011.3
20260505070011 50 300 0.0 0.0 0.00 0.00 0.00 85 1011.1
20260505064528 50 300 0.0 0.0 0.00 0.00 0.00 84 1011.2
20260505063009 50 300 0.0 0.0 0.00 0.00 0.00 85 1011.1
20260505061522 50 300 0.0 0.0 0.00 0.00 0.00 84 1010.9
20260505060008 51 300 0.0 0.0 0.00 0.00 0.00 83 1010.8
20260505054509 51 300 0.0 0.0 0.00 0.00 0.00 83 1011.1
20260505053007 51 300 0.0 0.0 0.00 0.00 0.00 83 1011.4
20260505051508 52 300 0.0 0.0 0.00 0.00 0.00 83 1011.5
20260505041510 53 300 0.0 0.0 0.00 0.00 0.00 77 1011.0
20260505040005 53 300 0.0 0.0 0.00 0.00 0.00 76 1011.0
20260505034508 54 300 0.0 0.0 0.00 0.00 0.00 74 1010.6
20260505033003 54 300 0.0 0.0 0.00 0.00 0.00 73 1010.3
20260505030002 55 313 0.0 0.0 0.00 0.00 0.00 74 1010.4
20260505024503 55 298 0.0 0.0 0.00 0.00 0.00 72 1010.4
20260505023002 55 277 1.0 0.0 0.00 0.00 0.00 72 1010.4
20260505021502 56 227 0.0 0.0 0.00 0.00 0.00 75 1010.3
20260505020100 57 261 0.0 0.0 0.00 0.00 0.00 72 1010.1
20260505014609 58 306 0.0 0.0 0.00 0.00 0.00 72 1010.1
20260505013110 59 322 0.0 0.0 0.00 0.00 0.00 70 1010.1
20260505011559 59 296 0.0 0.0 0.00 0.00 0.00 69 1010.2
20260505004600 59 279 1.0 0.0 0.00 0.00 0.00 70 1010.4
20260505003057 58 289 1.0 0.0 0.00 0.00 0.00 71 1010.4
20260505001600 57 306 1.0 0.0 0.00 0.00 0.00 73 1010.4
20260505000114 57 276 1.0 0.0 0.00 0.00 0.00 73 1010.4
20260504234555 57 261 1.0 0.0 0.00 0.00 0.00 73 1010.4
20260504233059 57 258 1.0 0.0 0.00 0.00 0.00 75 1010.5
20260504231555 57 290 1.0 0.0 0.00 0.00 0.00 75 1010.4
20260504230106 58 273 0.0 0.0 0.00 0.00 0.00 73 1010.5
20260504224553 59 284 0.0 0.0 0.00 0.00 0.00 71 1010.4
20260504223058 59 271 0.0 0.0 0.00 0.00 0.00 70 1010.6
20260504221601 60 270 0.0 0.0 0.00 0.00 0.00 68 1010.6
20260504220055 61 280 1.0 0.0 0.00 0.00 0.00 68 1010.6
20260504214550 61 277 1.0 0.0 0.00 0.00 0.00 69 1010.8
20260504213049 58 279 1.0 0.0 0.00 0.00 0.00 72 1010.9
20260504211548 58 283 0.0 0.0 0.00 0.00 0.00 74 1011.1
20260504210051 57 284 0.0 0.0 0.00 0.00 0.00 74 1011.2
20260504204547 57 273 1.0 0.0 0.00 0.00 0.00 73 1011.2
20260504203057 58 278 1.0 0.0 0.00 0.00 0.00 73 1011.2
20260504201548 58 272 0.0 0.0 0.00 0.00 0.00 73 1011.2
20260504200146 58 271 0.0 0.0 0.00 0.00 0.00 72 1011.1
20260504194548 59 273 1.0 0.0 0.00 0.00 0.00 71 1011.3
20260504193045 59 345 1.0 0.0 0.00 0.00 0.00 72 1011.1
20260504191544 58 274 1.0 0.0 0.00 0.00 0.00 71 1011.2
20260504190045 59 276 0.0 0.0 0.00 0.00 0.00 71 1011.3